Weather History for Bishop, CA

Change the Weather History Date:

Monday, August 19, 2013

  Actual Average Record
Temperature  
Mean Temperature 74 °F 75 °F  
Max Temperature 93 °F 96 °F 106 °F (1950)
Min Temperature 54 °F 53 °F 42 °F (1990)
Degree Days  
Heating Degree Days 0 0  
Month to date heating degree days 0 0  
Since 1 June heating degree days 0 20  
Since 1 July heating degree days 0 1  
Cooling Degree Days 9 10  
Month to date cooling degree days 172 211  
Year to date cooling degree days 1043 875  
Since 1 June cooling degree days 957 807  
Growing Degree Days 24 (Base 50)    
Moisture  
Dew Point 49 °F    
Average Humidity 56    
Maximum Humidity 93    
Minimum Humidity 18    
Precipitation  
Precipitation 0.00 in 0.01 in 0.04 in (1975)
Month to date precipitation 0.16 0.08  
Year to date precipitation 1.11 3.32  
Snow  
Snow 0.00 in 0.00 in - ()
Month to date snowfall 0.0 0.0  
Since 1 June snowfall 0.0 0.0  
Since 1 July snowfall 0.0 0.0  
Snow Depth 0.00 in    
Sea Level Pressure  
Sea Level Pressure 29.98 in    
Wind  
Wind Speed 8 mph (NNW)    
Max Wind Speed 23 mph    
Max Gust Speed 30 mph    
Visibility 10 miles    
Events      
T = Trace of Precipitation, MM = Missing Value Source: NWS Daily Summary

Daily Weather History Graph

Daily Weather History Graph

Search for Another Location

Airport:

Trip Planner

Search our weather history database for the weather conditions in past years. The results will help you decide how hot, cold, wet, or windy it might be!

Date:

Astronomy

Aug. 19, 2013 Rise Set
Actual Time 6:13 AM PDT 7:39 PM PDT
Civil Twilight 5:45 AM PDT 8:07 PM PDT
Nautical Twilight 5:12 AM PDT 8:40 PM PDT
Astronomical Twilight 4:38 AM PDT 9:14 PM PDT
Moon 6:34 PM PDT (8/19) 4:38 AM PDT (8/19)
Length of Visible Light 14h 21m
Length of Day
13h 26m
Waxing Gibbous, 98% of the Moon is Illuminated
Aug 19
Waxing Gibbous
Aug 20
Full
Aug 28
Last Quarter
Sep 5
New
Sep 12
First Quarter

Hourly Weather History & Observations

Time (PDT) Temp. Dew Point Humidity Pressure Visibility Wind Dir Wind Speed Gust Speed Precip Events Conditions
12:56 AM 64.0 °F 54.0 °F 70% 30.03 in 10.0 mi ENE 5.8 mph - N/A   Clear
1:56 AM 62.1 °F 55.0 °F 78% 30.01 in 10.0 mi WNW 5.8 mph - N/A   Clear
2:56 AM 59.0 °F 55.0 °F 87% 30.01 in 10.0 mi NNE 5.8 mph - N/A   Clear
3:56 AM 57.9 °F 54.0 °F 87% 30.00 in 10.0 mi NW 6.9 mph - N/A   Clear
4:56 AM 57.0 °F 53.1 °F 87% 30.01 in 10.0 mi NW 5.8 mph - N/A   Clear
5:56 AM 55.9 °F 52.0 °F 87% 30.01 in 10.0 mi Calm Calm - N/A   Clear
6:56 AM 54.0 °F 52.0 °F 93% 30.05 in 10.0 mi NNE 5.8 mph - N/A   Clear
7:56 AM 62.1 °F 55.0 °F 78% 30.06 in 10.0 mi NNW 4.6 mph - N/A   Clear
8:56 AM 66.0 °F 55.0 °F 68% 30.06 in 10.0 mi North 3.5 mph - N/A   Clear
9:56 AM 70.0 °F 55.0 °F 59% 30.06 in 10.0 mi North 3.5 mph - N/A   Clear
10:56 AM 77.0 °F 53.1 °F 43% 30.04 in 10.0 mi Calm Calm - N/A   Clear
11:56 AM 82.9 °F 48.0 °F 29% 30.01 in 10.0 mi Calm Calm - N/A   Clear
12:56 PM 84.9 °F 46.9 °F 27% 29.97 in 10.0 mi South 6.9 mph - N/A   Clear
1:56 PM 89.1 °F 44.1 °F 21% 29.94 in 10.0 mi SSE 10.4 mph - N/A   Clear
2:56 PM 91.9 °F 42.1 °F 18% 29.90 in 10.0 mi South 15.0 mph 23.0 mph N/A   Clear
3:56 PM 88.0 °F 42.1 °F 20% 29.88 in 10.0 mi SSE 16.1 mph - N/A   Clear
4:56 PM 87.1 °F 46.0 °F 24% 29.88 in 10.0 mi SSE 15.0 mph 20.7 mph N/A   Partly Cloudy
5:56 PM 86.0 °F 46.9 °F 26% 29.88 in 10.0 mi SSE 6.9 mph - N/A   Mostly Cloudy
6:56 PM 82.9 °F 42.1 °F 24% 29.93 in 10.0 mi NNW 18.4 mph 28.8 mph N/A   Overcast
7:56 PM 80.1 °F 45.0 °F 29% 29.97 in 10.0 mi NNW 17.3 mph 26.5 mph N/A   Mostly Cloudy
8:56 PM 79.0 °F 46.0 °F 31% 29.98 in 10.0 mi NNW 13.8 mph 25.3 mph N/A   Clear
9:56 PM 77.0 °F 45.0 °F 32% 29.97 in 10.0 mi NNW 15.0 mph - N/A   Clear
10:56 PM 75.0 °F 45.0 °F 34% 29.97 in 10.0 mi Variable 4.6 mph - N/A   Clear
11:56 PM 71.1 °F 46.0 °F 41% 29.95 in 10.0 mi NNW 4.6 mph - N/A   Clear